Location: Pasarilla del Rebollar
(40.6790°N, 5.0062°W)
Time: 11:11:34
(UTC+00:00)

Cosmos 1461 - Pass Details

Date: 22 April 2026
Orbit: 423 x 481 km, 65.0° (Epoch: 15 May)

Event Time Altitude Azimuth Distance (km) Brightness Sun altitude
Exits shadow 03:40:50 63° 219° (SW) 542 2.4 -19.5°
Maximum altitude 03:41:23 86° 303° (WNW) 489 2.4 -19.4°
Drops below altitude 10° 03:45:07 10° 31° (NNE) 1,664 6.3 -18.8°
Sets 03:47:15 0° 32° (NNE) 2,543 7.5 -18.5°
